Weather in Ugleural'skij

Russia / Perm Krai     58°56′26″N   57°35′13″E
temp.,
°C
wind,
m/s
gust,
m/s
humid.,
%
clouds,
%
prec.,
mm/h
press.,
hPa
HPBL,
m
16 october, sat
sat1623:00+9s51353100 0.0 1015774
02:00+8ssw51176100 0.1 10141078
05:00+6ssw51178100 0.2 1014767
08:00+5sw41082100 0.0 10151007
11:00+5sw51085100 0.1 1015866
14:00+5sw4995100 0.1 1016885
17:00+5sw4994100 0.5 1016880
20:00+6sw4968100 0.1 1017816
17 october, sun
sun1723:00+5ssw3978100 0.1 1017469
02:00+5ssw41177100 0.0 1016660
05:00+5ssw51175100 0.0 1015833
08:00+5ssw41175100 0.0 1014769
11:00+6ssw5136786 0.3 1013756
14:00+8ssw5125974 0.0 10121172
17:00+7sw51168100 0.0 10131159
20:00+6wsw51078100 0.1 10141092
18 october, mon
mon1823:00+6sw31075100 0.1 1013638
02:00+5ssw41086100 0.0 1013428
05:00+4ssw4128597 0.0 1012483
08:00+4ssw4128577 0.0 1012463
11:00+7ssw4117611 0.1 1011677
14:00+9sw41070100 0.1 10101274
17:00+7ssw4976100 0.1 1010683
20:00+5ssw3108667 0.0 1010401
19 october, tue
tue1923:00+6s3991100 0.1 1009474
02:00+7s41193100 1.3 10071010
05:00+7ssw41093100 1.9 1006714
08:00+6ssw41090100 0.3 1005781
11:00+7ssw5979100 0.4 10051092
14:00+7wsw4978100 0.5 10051092
17:00+4w3875100 0.6 1007956
20:00+3wsw2680100 0.0 1007290
20 october, wed
wed2023:00+2w118496 0.0 100825
02:00+1w1188100 0.0 100818
05:00+1w1189100 0.0 100812
08:000wsw129076 0.0 100938
11:00+1w358132 0.1 1009573
14:00+3w456699 0.1 10101222
17:000nw368599 0.4 1012628
20:000wsw128699 0.1 101259